K5GHS-1 Weather Reports


Display with metric or nautical units.
time (UTC)temp
F
wind
direction
speed
MPH
gust
MPH
rain 1hr
in
rain 24hr
in
rain mn
in
humidity
%
barometer
mb
20260502220024 81 77 0.0 3.0 0.00 0.00 0.00 31 1017.2
20260502215521 81 94 0.0 1.0 0.00 0.00 0.00 31 1017.3
20260502215017 80 70 0.0 1.0 0.00 0.00 0.00 33 1017.3
20260502214515 80 94 1.0 1.0 0.00 0.00 0.00 32 1017.3
20260502214012 80 74 0.0 1.0 0.00 0.00 0.00 31 1017.6
20260502213508 81 65 0.0 2.0 0.00 0.00 0.00 31 1017.6
20260502213007 81 96 0.0 2.0 0.00 0.00 0.00 31 1017.6
20260502212505 80 82 0.0 1.0 0.00 0.00 0.00 31 1017.4
20260502212002 81 69 0.0 1.0 0.00 0.00 0.00 31 1017.7
20260502211457 81 159 0.0 1.0 0.00 0.00 0.00 32 1017.6
20260502210955 81 70 0.0 1.0 0.00 0.00 0.00 32 1017.5
20260502210452 80 67 0.0 2.0 0.00 0.00 0.00 32 1017.9
20260502205949 79 82 0.0 2.0 0.00 0.00 0.00 34 1017.8
20260502205445 78 84 0.0 2.0 0.00 0.00 0.00 32 1018.1
20260502204943 79 79 0.0 6.0 0.00 0.00 0.00 32 1017.9
20260502204439 80 82 1.0 3.0 0.00 0.00 0.00 31 1018.1
20260502203937 80 69 0.0 1.0 0.00 0.00 0.00 33 1018.1
20260502203434 81 181 1.0 1.0 0.00 0.00 0.00 29 1018.3
20260502202930 81 67 0.0 1.0 0.00 0.00 0.00 31 1018.4
20260502202427 81 78 0.0 0.0 0.00 0.00 0.00 32 1018.3
20260502201926 81 70 1.0 1.0 0.00 0.00 0.00 31 1018.4
20260502201421 80 72 0.0 0.0 0.00 0.00 0.00 32 1018.4
20260502200918 80 50 0.0 2.0 0.00 0.00 0.00 31 1018.6
20260502200414 80 39 0.0 3.0 0.00 0.00 0.00 33 1018.5
20260502195912 79 85 0.0 1.0 0.00 0.00 0.00 32 1018.6
20260502195409 79 69 0.0 2.0 0.00 0.00 0.00 33 1018.6
20260502194905 79 75 0.0 1.0 0.00 0.00 0.00 32 1018.6
20260502194402 80 82 0.0 2.0 0.00 0.00 0.00 30 1018.9
20260502193858 79 79 0.0 0.0 0.00 0.00 0.00 31 1018.9
20260502193355 79 65 0.0 1.0 0.00 0.00 0.00 33 1018.8
20260502192850 78 59 0.0 2.0 0.00 0.00 0.00 32 1018.9
20260502192348 79 71 1.0 1.0 0.00 0.00 0.00 31 1019.0
20260502191844 79 73 0.0 1.0 0.00 0.00 0.00 33 1019.0
20260502191343 80 69 0.0 0.0 0.00 0.00 0.00 33 1019.1
20260502190839 80 93 1.0 1.0 0.00 0.00 0.00 31 1019.1
20260502190337 79 71 0.0 1.0 0.00 0.00 0.00 33 1019.1
20260502185833 79 74 1.0 2.0 0.00 0.00 0.00 31 1019.1
20260502185328 79 69 0.0 3.0 0.00 0.00 0.00 34 1019.3
20260502184826 79 72 0.0 1.0 0.00 0.00 0.00 35 1019.3
20260502184321 79 66 0.0 0.0 0.00 0.00 0.00 34 1019.3
20260502183818 78 62 0.0 1.0 0.00 0.00 0.00 33 1019.3
20260502183314 78 59 1.0 2.0 0.00 0.00 0.00 32 1019.4
20260502182809 78 49 2.0 2.0 0.00 0.00 0.00 33 1019.6
20260502182305 77 61 2.0 3.0 0.00 0.00 0.00 30 1019.5
20260502181802 77 69 0.0 2.0 0.00 0.00 0.00 34 1019.5
20260502181301 77 81 2.0 3.0 0.00 0.00 0.00 30 1019.7
20260502180758 77 73 0.0 1.0 0.00 0.00 0.00 34 1019.8
20260502180255 77 74 0.0 2.0 0.00 0.00 0.00 34 1019.9
20260502170214 75 185 2.0 3.0 0.00 0.00 0.00 33 1020.5
20260502164201 75 69 0.0 1.0 0.00 0.00 0.00 37 1020.4
20260502163656 74 75 0.0 1.0 0.00 0.00 0.00 36 1020.4
20260502163154 75 66 1.0 2.0 0.00 0.00 0.00 33 1020.4
20260502162650 75 212 1.0 1.0 0.00 0.00 0.00 32 1020.4
20260502162147 75 69 1.0 2.0 0.00 0.00 0.00 36 1020.4
20260502161645 74 75 0.0 1.0 0.00 0.00 0.00 34 1020.5
20260502161141 74 74 0.0 0.0 0.00 0.00 0.00 37 1020.3
20260502160639 74 76 0.0 2.0 0.00 0.00 0.00 39 1020.5
20260502160138 73 72 0.0 2.0 0.00 0.00 0.00 37 1020.6
20260502152051 71 43 0.0 1.0 0.00 0.00 0.00 45 1020.2
20260502151549 72 86 0.0 1.0 0.00 0.00 0.00 44 1020.3
20260502151046 71 71 0.0 0.0 0.00 0.00 0.00 48 1020.1
20260502150544 70 73 0.0 1.0 0.00 0.00 0.00 50 1020.1
20260502130428 53 79 0.0 0.0 0.00 0.00 0.00 86 1019.1
20260502123411 49 75 0.0 0.0 0.00 0.00 0.00 92 1018.9
20260502122908 49 76 0.0 0.0 0.00 0.00 0.00 92 1018.9
20260502122404 49 73 0.0 0.0 0.00 0.00 0.00 92 1018.6
20260502121903 48 79 0.0 0.0 0.00 0.00 0.00 92 1018.5
20260502121359 48 79 0.0 0.0 0.00 0.00 0.00 92 1018.8
20260502120857 48 79 0.0 0.0 0.00 0.00 0.00 92 1018.5
20260502120353 48 79 0.0 0.0 0.00 0.00 0.00 92 1018.6
20260502115850 48 79 0.0 0.0 0.00 0.00 0.00 92 1018.4
20260502115347 48 79 0.0 0.0 0.00 0.00 0.00 92 1018.3
20260502114843 48 79 0.0 0.0 0.00 0.00 0.00 92 1018.2
20260502114341 48 79 0.0 0.0 0.00 0.00 0.00 92 1017.9
20260502113838 48 79 0.0 0.0 0.00 0.00 0.00 92 1017.9
20260502113335 48 79 0.0 0.0 0.00 0.00 0.00 92 1017.7
20260502112833 49 79 0.0 0.0 0.00 0.00 0.00 92 1017.8
20260502112330 49 79 0.0 0.0 0.00 0.00 0.00 91 1017.8
20260502111828 49 79 0.0 0.0 0.00 0.00 0.00 91 1017.7
20260502111325 49 79 0.0 0.0 0.00 0.00 0.00 91 1017.7
20260502110823 50 79 0.0 0.0 0.00 0.00 0.00 91 1017.8
20260502110320 50 79 0.0 0.0 0.00 0.00 0.00 91 1017.7
20260502105818 50 79 0.0 0.0 0.00 0.00 0.00 91 1017.7
20260502105314 50 79 0.0 0.0 0.00 0.00 0.00 90 1017.5
20260502104812 50 79 0.0 0.0 0.00 0.00 0.00 90 1017.6
20260502104309 51 79 0.0 0.0 0.00 0.00 0.00 90 1017.4
20260502103806 50 79 0.0 0.0 0.00 0.00 0.00 90 1017.2
20260502103304 50 79 0.0 0.0 0.00 0.00 0.00 89 1017.2
20260502102801 51 79 0.0 0.0 0.00 0.00 0.00 89 1017.3
20260502102257 51 79 0.0 0.0 0.00 0.00 0.00 89 1017.3
20260502101755 51 79 0.0 0.0 0.00 0.00 0.00 89 1017.3
20260502101253 51 79 0.0 0.0 0.00 0.00 0.00 89 1017.3
20260502100751 51 79 0.0 0.0 0.00 0.00 0.00 88 1016.9
20260502100249 52 79 0.0 0.0 0.00 0.00 0.00 88 1017.0
20260502091224 53 67 0.0 1.0 0.00 0.00 0.00 86 1017.1
20260502090721 54 83 0.0 0.0 0.00 0.00 0.00 86 1016.9
20260502090217 54 82 0.0 1.0 0.00 0.00 0.00 86 1017.2
20260502071113 55 81 0.0 0.0 0.00 0.00 0.00 84 1017.1
20260502070611 55 78 0.0 1.0 0.00 0.00 0.00 83 1017.1
20260502070109 55 83 0.0 0.0 0.00 0.00 0.00 83 1017.3
20260502065607 55 83 0.0 1.0 0.00 0.00 0.00 83 1017.3
20260502065104 55 117 1.0 2.0 0.00 0.00 0.00 83 1017.2
20260502064603 55 102 0.0 1.0 0.00 0.00 0.00 83 1017.3
20260502064100 55 57 1.0 1.0 0.00 0.00 0.00 84 1017.2
20260502063557 54 95 1.0 2.0 0.00 0.00 0.00 86 1017.2
20260502063055 54 100 0.0 0.0 0.00 0.00 0.00 86 1017.4
20260502062552 53 91 0.0 0.0 0.00 0.00 0.00 87 1017.2
20260502062050 53 88 0.0 0.0 0.00 0.00 0.00 86 1017.3
20260502061547 53 88 0.0 0.0 0.00 0.00 0.00 86 1017.1
20260502061044 54 88 0.0 0.0 0.00 0.00 0.00 86 1017.2
20260502060539 54 88 0.0 0.0 0.00 0.00 0.00 85 1017.3
20260502060037 54 88 0.0 0.0 0.00 0.00 0.00 85 1017.2
20260502055534 54 88 0.0 0.0 0.00 0.00 0.00 84 1017.2
20260502055033 54 88 0.0 0.0 0.00 0.00 0.00 84 1017.2
20260502054531 54 88 0.0 0.0 0.00 0.00 0.00 84 1017.3
20260502054028 55 88 0.0 0.0 0.00 0.00 0.00 84 1017.3
20260502053524 55 88 0.0 0.0 0.00 0.00 0.00 83 1017.3
20260502053023 55 88 0.0 0.0 0.00 0.00 0.00 83 1017.3
20260502052521 55 88 0.0 0.0 0.00 0.00 0.00 83 1017.4
20260502052019 55 88 0.0 0.0 0.00 0.00 0.00 82 1017.1
20260502051516 55 88 0.0 0.0 0.00 0.00 0.00 82 1017.1
20260502051014 56 88 0.0 0.0 0.00 0.00 0.00 82 1016.9
20260502050510 56 88 0.0 0.0 0.00 0.00 0.00 82 1017.1
20260502050007 56 88 0.0 0.0 0.00 0.00 0.00 82 1017.2
20260502045503 56 88 0.0 0.0 0.00 0.00 0.00 81 1017.1
20260502045001 56 88 0.0 0.0 0.00 0.00 0.00 82 1017.1
20260502044456 56 88 0.0 0.0 0.00 0.00 0.00 82 1016.9
20260502043953 56 88 0.0 0.0 0.00 0.00 0.00 81 1016.9
20260502043451 57 88 0.0 0.0 0.00 0.00 0.00 80 1016.9
20260502042950 57 88 0.0 0.0 0.00 0.00 0.00 79 1017.1
20260502042447 57 88 0.0 0.0 0.00 0.00 0.00 79 1016.9
20260502041945 57 88 0.0 0.0 0.00 0.00 0.00 79 1016.9
20260502041443 57 88 0.0 0.0 0.00 0.00 0.00 78 1016.9
20260502040939 57 88 0.0 0.0 0.00 0.00 0.00 77 1016.9
20260502040436 58 88 0.0 0.0 0.00 0.00 0.00 77 1016.9
20260502035932 58 88 0.0 0.0 0.00 0.00 0.00 77 1017.3
20260502035429 58 88 0.0 0.0 0.00 0.00 0.00 77 1017.2
20260502034927 58 88 0.0 0.0 0.00 0.00 0.00 76 1017.1
20260502034425 58 88 0.0 0.0 0.00 0.00 0.00 76 1017.0
20260502033923 59 88 0.0 0.0 0.00 0.00 0.00 75 1016.9
20260502033420 59 88 0.0 0.0 0.00 0.00 0.00 75 1017.0
20260502032917 59 88 0.0 0.0 0.00 0.00 0.00 76 1016.9
20260502032413 59 88 0.0 0.0 0.00 0.00 0.00 75 1016.8
20260502031910 59 88 0.0 0.0 0.00 0.00 0.00 75 1016.7
20260502031409 59 88 0.0 0.0 0.00 0.00 0.00 74 1017.0
20260502030907 59 88 0.0 0.0 0.00 0.00 0.00 74 1016.9
20260502030405 60 88 0.0 0.0 0.00 0.00 0.00 74 1016.7
20260502025903 60 88 0.0 0.0 0.00 0.00 0.00 74 1016.5
20260502025359 60 88 0.0 0.0 0.00 0.00 0.00 74 1016.4
20260502024857 60 88 0.0 0.0 0.00 0.00 0.00 74 1016.6
20260502024355 60 88 0.0 0.0 0.00 0.00 0.00 73 1016.5
20260502023853 60 88 0.0 0.0 0.00 0.00 0.00 72 1016.5
20260502023350 60 88 0.0 0.0 0.00 0.00 0.00 72 1016.5
20260502022848 60 88 0.0 0.0 0.00 0.00 0.00 72 1016.6
20260502022344 61 88 0.0 0.0 0.00 0.00 0.00 72 1016.4
20260502021841 61 88 0.0 0.0 0.00 0.00 0.00 72 1016.2
20260502021338 61 88 0.0 0.0 0.00 0.00 0.00 72 1016.3
20260502020835 61 88 0.0 0.0 0.00 0.00 0.00 72 1016.2
20260502020333 61 88 0.0 0.0 0.00 0.00 0.00 71 1015.9
20260502015830 61 88 0.0 0.0 0.00 0.00 0.00 71 1016.0
20260502015327 61 88 0.0 0.0 0.00 0.00 0.00 70 1016.0
20260502014824 62 85 0.0 1.0 0.00 0.00 0.00 70 1015.5
20260502014321 62 91 0.0 1.0 0.00 0.00 0.00 70 1015.5
20260502013817 62 88 0.0 0.0 0.00 0.00 0.00 70 1015.3
20260502013313 62 89 1.0 1.0 0.00 0.00 0.00 69 1015.3
20260502012809 62 88 0.0 1.0 0.00 0.00 0.00 69 1015.2
20260502012307 62 88 0.0 0.0 0.00 0.00 0.00 69 1015.0
20260502011804 62 88 0.0 1.0 0.00 0.00 0.00 68 1015.1
20260502011300 62 85 0.0 1.0 0.00 0.00 0.00 68 1015.1
20260502010758 62 80 0.0 0.0 0.00 0.00 0.00 67 1014.8
20260502010254 62 85 0.0 0.0 0.00 0.00 0.00 67 1014.8
20260502005751 63 85 0.0 0.0 0.00 0.00 0.00 67 1015.0
20260502005249 63 84 0.0 0.0 0.00 0.00 0.00 66 1014.6
20260502004745 63 88 0.0 1.0 0.00 0.00 0.00 66 1015.0
20260502004242 63 85 0.0 1.0 0.00 0.00 0.00 66 1014.8
20260502003739 63 87 0.0 1.0 0.00 0.00 0.00 66 1014.9
20260502003237 63 88 0.0 0.0 0.00 0.00 0.00 66 1014.6
20260502002732 63 95 1.0 1.0 0.00 0.00 0.00 65 1014.4
20260502002230 63 87 1.0 1.0 0.00 0.00 0.00 65 1014.5
20260502001727 64 83 0.0 1.0 0.00 0.00 0.00 64 1014.2
20260502001225 64 85 1.0 1.0 0.00 0.00 0.00 64 1014.3
20260502000723 64 85 0.0 1.0 0.00 0.00 0.00 64 1014.0
20260502000220 64 95 1.0 2.0 0.00 0.00 0.00 63 1014.0
20260501235716 64 94 1.0 1.0 0.00 0.00 0.00 63 1014.1
20260501235212 64 82 0.0 1.0 0.00 0.00 0.00 63 1014.0
20260501234708 64 101 1.0 1.0 0.00 0.00 0.00 61 1013.9
20260501234205 65 82 0.0 1.0 0.00 0.00 0.00 60 1013.9
20260501233703 65 79 0.0 1.0 0.00 0.00 0.00 59 1013.9
20260501233200 65 72 0.0 0.0 0.00 0.00 0.00 60 1013.8
20260501232655 65 84 0.0 1.0 0.00 0.00 0.00 59 1013.7
20260501232153 65 75 0.0 1.0 0.00 0.00 0.00 60 1013.6
20260501231651 65 86 1.0 1.0 0.00 0.00 0.00 59 1013.6
20260501231149 65 77 0.0 0.0 0.00 0.00 0.00 60 1013.4
20260501230647 65 86 1.0 2.0 0.00 0.00 0.00 59 1013.5
20260501230145 65 86 0.0 1.0 0.00 0.00 0.00 59 1013.6
20260501225643 65 87 0.0 1.0 0.00 0.00 0.00 58 1013.5
20260501225139 65 95 1.0 1.0 0.00 0.00 0.00 59 1013.3
20260501224635 65 84 1.0 1.0 0.00 0.00 0.00 58 1013.5
20260501224133 65 81 0.0 0.0 0.00 0.00 0.00 60 1013.4
20260501223629 65 72 0.0 1.0 0.00 0.00 0.00 59 1013.2
20260501223126 65 92 1.0 2.0 0.00 0.00 0.00 58 1013.5
20260501222622 66 79 1.0 1.0 0.00 0.00 0.00 58 1013.2
20260501222119 65 82 0.0 0.0 0.00 0.00 0.00 59 1013.3
20260501221615 65 78 0.0 1.0 0.00 0.00 0.00 58 1013.2
20260501221113 65 84 0.0 2.0 0.00 0.00 0.00 58 1013.4
20260501220611 65 84 1.0 2.0 0.00 0.00 0.00 57 1013.4